Weather History for KLGU - November, 2013

Change the Weather History Date:

Wednesday, November 13, 2013

  Actual Average Record
Temperature  
Mean Temperature 43 °F -  
Max Temperature 54 °F 48 °F 66 °F (1989)
Min Temperature 32 °F 26 °F 8 °F (2014)
Degree Days  
Heating Degree Days 22    
Moisture  
Dew Point 30 °F    
Average Humidity 68    
Maximum Humidity 85    
Minimum Humidity 38    
Precipitation  
Precipitation 0.00 in - - ()
Sea Level Pressure  
Sea Level Pressure 30.28 in    
Wind  
Wind Speed 3 mph (East)    
Max Wind Speed 8 mph    
Max Gust Speed -    
Visibility 10 miles    
Events Rain    
Averages and records for this station are not official NWS values.
T = Trace of Precipitation, MM = Missing Value Source: NWS Daily Summary

Daily Weather History Graph

Daily Weather History Graph

Search for Another Location

Airport or City:

Trip Planner

Search our weather history database for the weather conditions in past years. The results will help you decide how hot, cold, wet, or windy it might be!

Date:

Astronomy

Nov. 13, 2013 Rise Set
Actual Time 7:14 AM MST 5:08 PM MST
Civil Twilight 6:44 AM MST 5:38 PM MST
Nautical Twilight 6:11 AM MST 6:11 PM MST
Astronomical Twilight 5:38 AM MST 6:44 PM MST
Moon 3:00 PM MST (11/13) 3:08 AM MST (11/13)
Length of Visible Light 10h 53m
Length of Day
9h 53m
Waxing Gibbous, 85% of the Moon is Illuminated
Nov 13
Waxing Gibbous
Nov 17
Full
Nov 25
Last Quarter
Dec 2
New
Dec 9
First Quarter

Hourly Weather History & Observations

Time (MST) Temp. Windchill Dew Point Humidity Pressure Visibility Wind Dir Wind Speed Gust Speed Precip Events Conditions
12:51 AM 34.0 °F - 28.0 °F 79% 30.33 in 10.0 mi Calm Calm - N/A   Clear
1:51 AM 33.1 °F - 28.0 °F 82% 30.32 in 10.0 mi Calm Calm - N/A   Clear
2:51 AM 34.0 °F 31.0 °F 28.9 °F 82% 30.32 in 10.0 mi South 3.5 mph - N/A   Clear
3:51 AM 35.1 °F 31.0 °F 28.9 °F 78% 30.31 in 10.0 mi SSE 4.6 mph - N/A   Clear
4:51 AM 34.0 °F 28.0 °F 28.9 °F 82% 30.32 in 10.0 mi NE 6.9 mph - N/A   Clear
5:51 AM 33.1 °F 28.7 °F 27.0 °F 78% 30.33 in 10.0 mi ENE 4.6 mph - N/A   Clear
6:51 AM 32.0 °F 28.7 °F 27.0 °F 82% 30.33 in 10.0 mi NNW 3.5 mph - N/A   Clear
7:51 AM 33.1 °F 28.7 °F 28.0 °F 82% 30.34 in 10.0 mi ESE 4.6 mph - N/A   Clear
8:51 AM 37.0 °F - 30.0 °F 76% 30.33 in 10.0 mi Calm Calm - N/A   Clear
9:51 AM 39.0 °F 34.8 °F 33.1 °F 79% 30.32 in 10.0 mi WNW 5.8 mph - N/A   Clear
10:51 AM 45.0 °F 43.5 °F 30.9 °F 58% 30.28 in 10.0 mi West 3.5 mph - N/A   Clear
11:51 AM 48.0 °F - 30.0 °F 50% 30.27 in 10.0 mi Calm Calm - N/A   Mostly Cloudy
12:51 PM 52.0 °F - 27.0 °F 38% 30.24 in 10.0 mi Variable 3.5 mph - N/A   Partly Cloudy
1:51 PM 54.0 °F - 28.9 °F 38% 30.22 in 10.0 mi NNE 5.8 mph - N/A   Scattered Clouds
2:51 PM 54.0 °F - 28.9 °F 38% 30.21 in 10.0 mi Calm Calm - N/A   Overcast
3:51 PM 53.1 °F - 30.9 °F 43% 30.21 in 10.0 mi ESE 4.6 mph - 0.00 in   Overcast
4:51 PM 51.1 °F - 36.0 °F 56% 30.22 in 10.0 mi SSW 8.1 mph - 0.00 in Rain Light Rain
5:51 PM 50.0 °F - 34.0 °F 54% 30.22 in 10.0 mi SSW 3.5 mph - 0.00 in   Mostly Cloudy
6:51 PM 44.1 °F 40.8 °F 34.0 °F 68% 30.27 in 10.0 mi ESE 5.8 mph - N/A   Scattered Clouds
7:51 PM 41.0 °F - 32.0 °F 70% 30.27 in 10.0 mi Calm Calm - N/A   Clear
8:51 PM 37.9 °F 32.7 °F 30.0 °F 73% 30.27 in 10.0 mi East 6.9 mph - N/A   Clear
9:51 PM 34.0 °F 29.8 °F 28.9 °F 82% 30.29 in 10.0 mi North 4.6 mph - N/A   Clear
10:51 PM 35.1 °F - 28.9 °F 78% 30.26 in 10.0 mi Calm Calm - N/A   Clear
11:51 PM 32.0 °F - 28.0 °F 85% 30.26 in 10.0 mi Calm Calm - N/A   Clear